[[{"header":{"parameterUnit":"m.s-1","parameterCategory":1,"la1":30.2991,"la2":30.254,"lo1":-89.0895,"lo2":-89.0444,"dy":0.0017,"dx":0.0017,"nx":28,"ny":28,"refTime":"2023-04-22T21:00:00:Z","depth":0,"parameterNumber":2,"parameterNumberName":"U-component_of_WINDS"},"data":[0,0,0,0,0,0,0,0,0,0,0,0,0,0,0,0,0,0,0,0,0,0,0,0,0,0,0,0,0,0,0,0,0,0,0,0,0,0,0,0,0,0,0,0,0,0,0,0,0,0,0,0,0,0,0,0,0,0,-1.8821,-1.882,0,-1.8738,-1.8737,-1.8736,-1.8572,-1.8569,-1.8566,-1.8563,-1.8483,-1.8484,-1.8485,0,0,0,0,0,0,0,0,0,0,0,0,0,-1.8842,-1.8843,-1.8821,-1.882,-1.8819,-1.8738,-1.8737,-1.8736,-1.8573,-1.8569,-1.8565,-1.8561,-1.8482,-1.8484,-1.8485,0,0,0,0,0,0,0,0,0,0,0,0,0,-1.8804,-1.8843,-1.8821,-1.8727,-1.8718,-1.8738,-1.8737,-1.8736,-1.8574,-1.8569,-1.8564,-1.8559,-1.8482,-1.8483,-1.8485,-1.859,0,0,-1.8489,-1.8489,0,0,0,0,0,0,0,0,-1.8806,-1.8803,-1.8742,-1.8734,-1.8724,-1.866,-1.8715,-1.8687,-1.8575,-1.8629,-1.8563,-1.8557,-1.8546,-1.8542,-1.8537,-1.8587,-1.8583,-1.8489,-1.849,-1.849,-1.8491,0,0,0,0,0,0,0,-1.8809,-1.8806,-1.8788,-1.8742,-1.873,-1.8691,-1.8681,-1.8709,-1.8616,-1.8624,-1.8612,-1.8604,-1.854,-1.8536,-1.8534,-1.8582,-1.8489,-1.849,-1.8491,-1.8491,-1.8715,-1.872,0,0,0,0,0,0,-1.8825,-1.8809,-1.8791,-1.8785,-1.8754,-1.8695,-1.8683,-1.8686,-1.8615,-1.86,-1.8608,-1.8597,-1.8536,-1.8533,-1.8531,-1.8649,-1.849,-1.8492,-1.8492,-1.871,-1.8716,-1.8722,0,0,0,0,0,0,-1.8826,-1.8825,-1.8794,-1.8794,-1.8787,-1.87,-1.8704,-1.8687,-1.8682,-1.8603,-1.8586,-1.8621,-1.8532,-1.8529,-1.8577,-1.8644,-1.8492,-1.8493,-1.8704,-1.8712,-1.8719,-1.8889,0,0,0,0,0,0,-1.8827,-1.8826,-1.8864,-1.8796,-1.8788,-1.884,-1.8708,-1.8689,-1.8685,-1.8669,-1.8611,-1.8597,-1.8528,-1.8576,-1.8578,-1.8643,-1.8494,-1.8697,-1.8707,-1.8717,-1.8877,-1.8901,-1.8922,0,0,0,0,0,-1.8829,-1.8916,-1.8867,-1.8865,-1.8833,-1.8844,-1.884,-1.8758,-1.8691,-1.8729,-1.8678,-1.8598,-1.8637,-1.8582,-1.8583,-1.865,-1.8693,-1.8705,-1.8716,-1.8866,-1.8896,-1.8922,0,0,0,0,0,0,-1.8995,-1.8905,-1.885,-1.8917,-1.889,-1.8817,-1.8862,-1.8792,-1.8784,-1.877,-1.8671,-1.8659,-1.872,-1.869,-1.863,-1.8749,-1.8652,-1.8665,-1.8766,-1.8794,-1.8817,-1.8822,-1.8496,0,0,0,0,0,-1.904,-1.9055,-1.8976,-1.9043,-1.9032,-1.895,-1.8952,-1.8892,-1.886,-1.8847,-1.88,-1.8773,-1.8779,-1.8785,-1.8786,-1.8872,-1.8857,-1.8919,-1.8942,-1.8961,-1.8973,-1.9016,-1.9043,-1.876,-1.876,-1.8759,0,0,-1.9132,-1.9084,-1.91,-1.9076,-1.9047,-1.9066,-1.8941,-1.8967,-1.898,-1.8852,-1.8893,-1.8858,-1.8822,-1.8889,-1.8917,-1.8866,-1.9048,-1.8976,-1.8992,-1.8993,-1.9031,-1.9058,-1.9082,-1.8767,-1.8766,-1.8765,0,0,-1.9309,-1.9275,-1.9327,-1.9301,-1.9259,-1.9204,-1.9217,-1.9155,-1.9126,-1.9166,-1.907,-1.9087,-1.9099,-1.9077,-1.9068,-1.9239,-1.9166,-1.9243,-1.9362,-1.9405,-1.9428,-1.9447,-1.9508,-1.9531,-1.9255,-1.9255,-1.9256,0,-1.9429,-1.9452,-1.9363,-1.9394,-1.9387,-1.9271,-1.9324,-1.9304,-1.9265,-1.9264,-1.9207,-1.9221,-1.9188,-1.9249,-1.9291,-1.9288,-1.93,-1.9248,-1.9431,-1.945,-1.9467,-1.9524,-1.9547,-1.9265,-1.9264,-1.9263,-1.9262,0,-1.9602,-1.962,-1.9668,-1.9632,-1.963,-1.9673,-1.9592,-1.9601,-1.9542,-1.9494,-1.9537,-1.9495,-1.9485,-1.9496,-1.9438,-1.9549,-1.9519,-1.9449,-1.9349,-1.9505,-1.9557,-1.9578,-1.9279,-1.9275,-1.9272,-1.927,0,0,-1.9879,-1.9795,-1.9814,-1.9796,-1.9742,-1.9756,-1.9794,-1.9784,-1.9794,-1.9773,-1.9803,-1.9817,-1.9752,-1.9741,-1.9681,-1.972,-1.9859,-1.9645,-1.9642,-1.9686,-1.9979,-2.0031,-2.0058,-1.9811,-1.9814,-1.9817,-1.9981,0,-2.0044,-2.0102,-2.0024,-2.01,-2.0116,-2.0007,-2.0041,-2.0013,-1.997,-1.9979,-1.9932,-1.9943,-1.9857,-1.985,-1.9883,-1.9835,-1.9916,-1.9822,-1.9838,-1.984,-1.9849,-2.0084,-2.0139,-2.0296,-2.0001,-2.0005,-2.0007,0,-2.0242,-2.0229,-2.0307,-2.0249,-2.0253,-2.0284,-2.0269,-2.0279,-2.0246,-2.0212,-2.0201,-2.0129,-2.0165,-2.007,-2.0118,-2.0056,-2.0058,-2.0036,-2.004,-2.0037,-1.9932,-2.0088,-2.0344,-2.0368,-2.0038,-2.0036,-2.0034,0,-2.0436,-2.0438,-2.0484,-2.0473,-2.0407,-2.0432,-2.0406,-2.0368,-2.0367,-2.0355,-2.0354,-2.0347,-2.0343,-2.0341,-2.0269,-2.0207,-2.0327,-2.0225,-2.03,-2.0302,-2.0329,-2.0328,-2.0589,-2.0333,-2.0333,-2.0332,-2.0332,0,-2.0627,-2.0679,-2.0571,-2.0599,-2.0655,-2.0566,-2.0624,-2.0588,-2.0555,-2.0576,-2.0483,-2.0505,-2.041,-2.0423,-2.0368,-2.0416,-2.0416,-2.039,-2.0375,-2.0398,-2.0401,-2.0397,-2.0384,-2.0339,-2.0337,-2.0336,-2.0335,0,-2.0851,-2.0781,-2.0825,-2.0759,-2.0744,-2.0788,-2.0732,-2.0757,-2.0709,-2.0737,-2.0739,-2.0663,-2.0673,-2.0603,-2.06,-2.0563,-2.0638,-2.0605,-2.0649,-2.0638,-2.0717,-2.071,-2.0983,-2.1014,-2.074,-2.0743,-2.0745,0,-2.0977,-2.1014,-2.0952,-2.0959,-2.0937,-2.095,-2.0948,-2.0864,-2.0867,-2.0833,-2.0862,-2.0865,-2.0862,-2.0884,-2.083,-2.0828,-2.0793,-2.0889,-2.0792,-2.0814,-2.0794,-2.0792,-2.0795,-2.0909,-2.0912,-2.0915,-2.0917,0,-2.1207,-2.1171,-2.1171,-2.1161,-2.1162,-2.115,-2.1132,-2.1144,-2.1052,-2.106,-2.1069,-2.1067,-2.1064,-2.1068,-2.1056,-2.1031,-2.096,-2.0948,-2.0965,-2.0989,-2.1013,-2.1,-2.0703,-2.0942,-2.094,-2.0938,-2.0936,-2.0935,-2.1385,-2.1413,-2.1374,-2.1379,-2.1357,-2.1342,-2.1362,-2.1317,-2.1322,-2.1312,-2.1263,-2.1281,-2.1249,-2.1225,-2.1207,-2.1221,-2.1175,-2.12,-2.1206,-2.1213,-2.1227,-2.1012,-2.1218,-2.1218,-2.1217,-2.1216,-2.1216,0,-2.1609,-2.1579,-2.1585,-2.1562,-2.1567,-2.1499,-2.1476,-2.1484,-2.1501,-2.1476,-2.1475,-2.1487,-2.1491,-2.1438,-2.1435,-2.1457,-2.1424,-2.1459,-2.1456,-2.1452,-2.1268,-2.1253,-2.1486,-2.1485,-2.1485,-2.1485,-2.1485,-2.1485,-2.1727,-2.1771,-2.1731,-2.1764,-2.1733,-2.1749,-2.1742,-2.173,-2.1709,-2.1725,-2.1728,-2.1693,-2.1658,-2.1652,-2.1654,-2.1638,-2.1641,-2.1687,-2.1661,-2.1491,-2.1464,-2.1439,-2.1425,-2.1689,-2.1689,-2.1843,-2.1844,-2.1845]},{"header":{"parameterUnit":"m.s-1","parameterCategory":1,"la1":30.2991,"la2":30.254,"lo1":-89.0895,"lo2":-89.0444,"dy":0.0017,"dx":0.0017,"nx":28,"ny":28,"refTime":"2023-04-22T21:00:00:Z","depth":0,"parameterNumber":3,"parameterNumberName":"V-component_of_WINDS"},"data":[0,0,0,0,0,0,0,0,0,0,0,0,0,0,0,0,0,0,0,0,0,0,0,0,0,0,0,0,0,0,0,0,0,0,0,0,0,0,0,0,0,0,0,0,0,0,0,0,0,0,0,0,0,0,0,0,0,0,-0.5636,-0.5636,0,-0.5575,-0.5574,-0.5573,-0.5509,-0.5508,-0.5507,-0.5506,-0.5445,-0.5444,-0.5443,0,0,0,0,0,0,0,0,0,0,0,0,0,-0.57,-0.57,-0.5637,-0.5636,-0.5635,-0.5575,-0.5574,-0.5573,-0.5509,-0.5508,-0.5507,-0.5506,-0.5445,-0.5444,-0.5443,0,0,0,0,0,0,0,0,0,0,0,0,0,-0.5659,-0.5699,-0.5637,-0.5596,-0.5591,-0.5575,-0.5574,-0.5573,-0.5509,-0.5508,-0.5507,-0.5505,-0.5446,-0.5444,-0.5443,-0.5463,0,0,-0.544,-0.5439,0,0,0,0,0,0,0,0,-0.5662,-0.5657,-0.5602,-0.5598,-0.5594,-0.5548,-0.5574,-0.5536,-0.551,-0.5541,-0.5506,-0.5505,-0.548,-0.5476,-0.5468,-0.546,-0.5457,-0.5439,-0.5439,-0.5438,-0.5438,0,0,0,0,0,0,0,-0.5664,-0.5659,-0.5612,-0.5602,-0.5596,-0.5581,-0.5573,-0.5566,-0.5519,-0.5538,-0.5533,-0.5526,-0.5478,-0.5469,-0.5466,-0.5456,-0.5439,-0.5438,-0.5438,-0.5437,-0.546,-0.5461,0,0,0,0,0,0,-0.5673,-0.5662,-0.5614,-0.561,-0.5625,-0.5581,-0.5573,-0.5564,-0.5519,-0.551,-0.5528,-0.5524,-0.5472,-0.5467,-0.5463,-0.5482,-0.5438,-0.5437,-0.5436,-0.5459,-0.5461,-0.5462,0,0,0,0,0,0,-0.5675,-0.567,-0.5617,-0.5635,-0.5627,-0.5581,-0.5572,-0.5564,-0.5555,-0.5511,-0.5502,-0.5527,-0.5471,-0.5465,-0.5463,-0.5479,-0.5437,-0.5435,-0.5457,-0.5459,-0.5461,-0.5521,0,0,0,0,0,0,-0.5677,-0.5671,-0.5677,-0.5635,-0.5626,-0.5617,-0.5573,-0.5563,-0.5553,-0.5547,-0.5508,-0.5501,-0.5469,-0.5465,-0.5462,-0.5477,-0.5435,-0.5456,-0.5458,-0.5461,-0.5518,-0.5525,-0.5532,0,0,0,0,0,-0.568,-0.5697,-0.5678,-0.5673,-0.5633,-0.5618,-0.5613,-0.5575,-0.5554,-0.5561,-0.5532,-0.5502,-0.5478,-0.5465,-0.5461,-0.5476,-0.5454,-0.5458,-0.546,-0.5515,-0.5524,-0.5531,0,0,0,0,0,0,-0.5744,-0.5691,-0.5669,-0.5674,-0.5651,-0.5607,-0.5614,-0.5586,-0.5569,-0.5565,-0.5519,-0.5511,-0.5514,-0.5495,-0.5482,-0.5492,-0.5462,-0.5464,-0.5505,-0.5513,-0.552,-0.5524,-0.5434,0,0,0,0,0,-0.5758,-0.575,-0.5704,-0.5713,-0.5702,-0.5661,-0.5652,-0.5625,-0.56,-0.559,-0.5562,-0.5539,-0.5526,-0.5518,-0.5504,-0.5515,-0.5505,-0.5523,-0.553,-0.5536,-0.5538,-0.5541,-0.5549,-0.5472,-0.5472,-0.5472,0,0,-0.5789,-0.5759,-0.5756,-0.5725,-0.5704,-0.5696,-0.5653,-0.5647,-0.5641,-0.5589,-0.5585,-0.5564,-0.5535,-0.5539,-0.5539,-0.5523,-0.5557,-0.554,-0.5545,-0.5544,-0.5545,-0.5553,-0.5559,-0.5474,-0.5473,-0.5473,0,0,-0.5839,-0.5816,-0.582,-0.58,-0.5768,-0.574,-0.5741,-0.5701,-0.5685,-0.5679,-0.564,-0.5633,-0.5612,-0.5593,-0.558,-0.5623,-0.5594,-0.562,-0.5656,-0.5659,-0.5666,-0.5671,-0.5685,-0.5691,-0.5622,-0.5622,-0.5623,0,-0.5881,-0.5867,-0.5826,-0.5822,-0.5809,-0.5761,-0.5765,-0.5748,-0.5713,-0.5706,-0.5688,-0.566,-0.5637,-0.5635,-0.5646,-0.5638,-0.5637,-0.5624,-0.5668,-0.5673,-0.5677,-0.569,-0.5696,-0.5626,-0.5625,-0.5625,-0.5625,0,-0.592,-0.5911,-0.5918,-0.5885,-0.5873,-0.5873,-0.5832,-0.5825,-0.5799,-0.5773,-0.5768,-0.5739,-0.5718,-0.5715,-0.569,-0.571,-0.5701,-0.5676,-0.5645,-0.5688,-0.57,-0.5705,-0.563,-0.5629,-0.5628,-0.5627,0,0,-0.601,-0.5953,-0.5956,-0.594,-0.5901,-0.5894,-0.5892,-0.587,-0.5864,-0.5842,-0.5839,-0.5822,-0.5798,-0.5784,-0.5757,-0.576,-0.5795,-0.5735,-0.5733,-0.5746,-0.5814,-0.5832,-0.5839,-0.5775,-0.5776,-0.5777,-0.5816,0,-0.6053,-0.6045,-0.6008,-0.6011,-0.6002,-0.5956,-0.5954,-0.593,-0.5906,-0.5895,-0.5868,-0.5856,-0.5826,-0.5817,-0.5819,-0.579,-0.5808,-0.5787,-0.5772,-0.5772,-0.578,-0.5845,-0.5865,-0.5903,-0.5821,-0.5821,-0.5822,0,-0.6103,-0.6083,-0.6085,-0.6046,-0.604,-0.6039,-0.6016,-0.6006,-0.5978,-0.5959,-0.5943,-0.5912,-0.5907,-0.5878,-0.587,-0.5857,-0.5849,-0.5834,-0.5834,-0.5831,-0.5799,-0.5844,-0.5915,-0.592,-0.5829,-0.5828,-0.5828,0,-0.6168,-0.6141,-0.6139,-0.6127,-0.608,-0.608,-0.6061,-0.6032,-0.6021,-0.6001,-0.5993,-0.5973,-0.5962,-0.5947,-0.5911,-0.5893,-0.5908,-0.5876,-0.5892,-0.5893,-0.5897,-0.5897,-0.5968,-0.5893,-0.5893,-0.5893,-0.5893,0,-0.622,-0.6223,-0.6167,-0.6165,-0.6167,-0.6124,-0.6127,-0.6104,-0.6078,-0.6071,-0.6031,-0.6026,-0.5979,-0.5968,-0.594,-0.5937,-0.5933,-0.5918,-0.5911,-0.5921,-0.5923,-0.5915,-0.5911,-0.5894,-0.5894,-0.5893,-0.5893,0,-0.6292,-0.6255,-0.6249,-0.6205,-0.6194,-0.6198,-0.616,-0.6157,-0.613,-0.6122,-0.6118,-0.6075,-0.606,-0.6023,-0.5999,-0.598,-0.5985,-0.5971,-0.5994,-0.5989,-0.6008,-0.6006,-0.6075,-0.6081,-0.6003,-0.6004,-0.6005,0,-0.6328,-0.6329,-0.6285,-0.6277,-0.6259,-0.6248,-0.6236,-0.6194,-0.6183,-0.6151,-0.6151,-0.6133,-0.6116,-0.6095,-0.6062,-0.6043,-0.6029,-0.6054,-0.6026,-0.6036,-0.6028,-0.6028,-0.6028,-0.606,-0.6061,-0.6062,-0.6063,0,-0.6395,-0.6376,-0.636,-0.6338,-0.6325,-0.6305,-0.6284,-0.628,-0.6232,-0.6223,-0.6207,-0.6194,-0.6168,-0.6151,-0.6126,-0.6107,-0.6077,-0.6072,-0.6075,-0.6086,-0.6098,-0.6091,-0.601,-0.607,-0.607,-0.6069,-0.6069,-0.6068,-0.6449,-0.6448,-0.6416,-0.64,-0.6379,-0.6359,-0.6354,-0.6326,-0.6311,-0.6287,-0.6263,-0.6249,-0.622,-0.6185,-0.6167,-0.6156,-0.6141,-0.6145,-0.6146,-0.6147,-0.6152,-0.6101,-0.6152,-0.6151,-0.6151,-0.6151,-0.6151,0,-0.6513,-0.6491,-0.6476,-0.6446,-0.6434,-0.6406,-0.638,-0.6372,-0.636,-0.6335,-0.6319,-0.63,-0.6283,-0.6248,-0.6228,-0.6226,-0.6211,-0.6222,-0.6221,-0.6217,-0.6167,-0.6167,-0.6233,-0.6233,-0.6233,-0.6233,-0.6233,-0.6233,-0.6545,-0.6541,-0.6518,-0.6503,-0.648,-0.6466,-0.6453,-0.6435,-0.6415,-0.6396,-0.6381,-0.6358,-0.6329,-0.6306,-0.6289,-0.6279,-0.6274,-0.6288,-0.6274,-0.6228,-0.6221,-0.6213,-0.6212,-0.6288,-0.6288,-0.6325,-0.6325,-0.6325]}]]